Regional Weather Roundup
Issued by NWS

Home | Current Version | Previous Version | Text Only | Print | Product List | Glossary On
Versions: 1 2 3 4 5 6 7 8 9 10 11 12 13 14 15 16 17 18 19 20 21 22 23 24 25 26 27 28 29 30 31 32 33 34 35 36 37 38 39 40 41 42 43 44 45 46 47 48 49 50
000
ASUS46 KSEW 311110
RWRWA

WASHINGTON REGIONAL WEATHER ROUNDUP
NATIONAL WEATHER SERVICE SEATTLE WA
400 AM PDT MON AUG 31 2015

NOTE:"FAIR" INDICATES FEW OR NO CLOUDS BELOW 12,000 FEET WITH NO
SIGNIFICANT WEATHER AND/OR OBSTRUCTIONS TO VISIBILITY.

WAZ505-507>509-311200-
SEATTLE, TACOMA, EVERETT, AND VICINITY

CITY           SKY/WX    TMP DP  RH WIND       PRES   REMARKS
EVERETT        CLOUDY    61  49  64 S22G33    29.95F
BOEING FIELD   CLOUDY    65  49  56 SE14      29.96F
RENTON           N/A    N/A N/A N/A MISG      29.96F
SEATAC AIRPORT CLOUDY    62  48  60 S15       29.97F
JBLM-MCCHORD   CLOUDY    62  50  65 S14       29.97F
PUYALLUP       CLOUDY    63  50  63 S7G14     29.99S
BREMERTON      CLOUDY    57  54  88 S8        29.98F
JBLM-FT LEWIS  CLOUDY    62  51  66 S14       29.96F
TACOMA NARROWS CLOUDY    62  50  64 S15       29.97F
$$

WAZ001-503-506-510-514-515-311200-
NORTH INTERIOR

CITY           SKY/WX    TMP DP  RH WIND       PRES   REMARKS
BELLINGHAM     CLOUDY    63  51  65 S22G32      N/A
FRIDAY HARBOR  LGT RAIN  57  53  86 SE10G22   29.88S
EASTSOUND      LGT RAIN  59  54  82 S12G23    29.85R
PORT ANGELES   CLOUDY    57  53  86 CALM      29.86F
PORT TOWNSEND  CLOUDY    61  55  82 S10G21    29.88S
NAS WHIDBEY    CLOUDY    61  53  75 SE23G30   29.91F
ARLINGTON      CLOUDY    61  46  59 SE17G23   29.92F
BURLINGTON     CLOUDY    63  52  67 SE14G20   29.90F
$$

WAZ020-022-039-040-504-511-512-311200-
SOUTHWEST INTERIOR

CITY           SKY/WX    TMP DP  RH WIND       PRES   REMARKS
SHELTON        CLOUDY    57  54  89 S15G21    29.93F
OLYMPIA        CLOUDY    61  50  67 S10       29.97F
CHEHALIS       CLOUDY    63  52  67 S13       29.99F
KELSO          NOT AVBL
VANCOUVER      CLOUDY    62  53  72 SE5       30.05S
SCAPPOOSE, OR  CLOUDY    61  52  72 CALM      30.04F
PORTLAND, OR   CLOUDY    62  54  74 SE6       30.06S
$$

WAZ021-516-517-311200-
WASHINGTON COAST

CITY           SKY/WX    TMP DP  RH WIND       PRES   REMARKS
FORKS          LGT RAIN  60  59  96 S9        29.88S VSB<1/4
HOQUIAM        CLOUDY    61  58  90 S21       29.95S FOG
ASTORIA, OR    CLOUDY    63  56  78 S12       29.99F
$$

WAZ019-023-024-040-518-519-311200-
CASCADE MOUNTAINS AND COLUMBIA GORGE

CITY           SKY/WX    TMP DP  RH WIND       PRES   REMARKS
TROUTDALE, OR  CLOUDY    57  53  86 CALM      30.06S
THE DALLES, OR MOCLDY    62  48  60 W10       30.03S
$$

WAZ026-027-041>044-520-521-311200-
EAST SLOPES

CITY           SKY/WX    TMP DP  RH WIND       PRES   REMARKS
OMAK           CLOUDY    59  41  51 S8        29.90R
WENATCHEE      MOCLDY    60  40  47 NW5       29.93S
ELLENSBURG     MOCLDY    55  43  63 NW6       29.98S
YAKIMA         PTCLDY    50  42  74 W6        29.99R
$$

WAZ028-034-035-311200-
COLUMBIA BASIN

CITY           SKY/WX    TMP DP  RH WIND       PRES   REMARKS
EPHRATA        MOCLDY    55  44  66 SW6       29.94S
MOSES LAKE     MOCLDY    58  45  62 S9        29.97R
PASCO          CLEAR     60  47  61 S7        30.00S
HERMISTON, OR  PTCLDY    57  46  66 SW9       30.02S
$$

WAZ036>038-311200-
NORTHEAST WASHINGTON

CITY           SKY/WX    TMP DP  RH WIND       PRES   REMARKS
SPOKANE GEIGER MOCLDY    51  43  74 S9        30.00R
SPOKANE FELTS  MOCLDY    54  44  69 S3        30.02R
FAIRCHILD AFB  CLOUDY    49  43  79 S10       30.00R
COEURDALENE,ID MOCLDY    54  45  71 S7        30.02S
DEER PARK      MOCLDY    49  43  80 S8        30.00S
$$

WAZ029>033-311200-
SOUTHEAST WASHINGTON

CITY           SKY/WX    TMP DP  RH WIND       PRES   REMARKS
PULLMAN        PTCLDY    49  41  74 CALM      30.07S
LEWISTON, ID   CLOUDY    58  51  78 CALM      30.04S
WALLA WALLA    PTCLDY    58  45  62 S8        30.03F
PENDLETON, OR  MOCLDY    52  43  71 SE7       30.05R
$$



USA.gov is the U.S. government's official web portal to all federal, state and local government web resources and services.